Weather History for Aberdeen, SD

Change the Weather History Date:

Sunday, January 5, 2014

  Actual Average Record
Temperature  
Mean Temperature -13 °F 12 °F  
Max Temperature -8 °F 22 °F 63 °F (2012)
Min Temperature -18 °F 2 °F -32 °F (1924)
Degree Days  
Heating Degree Days 78 53  
Month to date heating degree days 339 265  
Since 1 July heating degree days 4135 3756  
Cooling Degree Days 0 0  
Month to date cooling degree days 0 0  
Year to date cooling degree days 0 0  
Moisture  
Dew Point -23 °F    
Average Humidity 66    
Maximum Humidity 78    
Minimum Humidity 54    
Precipitation  
Precipitation T in 0.02 in 0.50 in (1916)
Month to date precipitation 0.01 0.09  
Year to date precipitation 0.01 0.09  
Snow  
Snow T in - - ()
Month to date snowfall 0.6  
Since 1 July snowfall 16.1  
Snow Depth 4.00 in    
Sea Level Pressure  
Sea Level Pressure 30.56 in    
Wind  
Wind Speed 17 mph (NW)    
Max Wind Speed 37 mph    
Max Gust Speed 43 mph    
Visibility 10 miles    
Events      
T = Trace of Precipitation, MM = Missing Value Source: NWS Daily Summary

Daily Weather History Graph

Daily Weather History Graph

Search for Another Location

Airport:

Trip Planner

Search our weather history database for the weather conditions in past years. The results will help you decide how hot, cold, wet, or windy it might be!

Date:

Astronomy

Jan. 05, 2014 Rise Set
Actual Time 8:13 AM CST 5:05 PM CST
Civil Twilight 7:39 AM CST 5:38 PM CST
Nautical Twilight 7:02 AM CST 6:16 PM CST
Astronomical Twilight 6:26 AM CST 6:52 PM CST
Moon 10:40 AM CST (1/5) 10:51 PM CST (1/5)
Length of Visible Light 9h 59m
Length of Day
8h 51m
Waxing Crescent, 25% of the Moon is Illuminated
Jan 5
Waxing Crescent
Jan 7
First Quarter
Jan 15
Full
Jan 23
Last Quarter
Jan 30
New

Hourly Weather History & Observations

Time (CST) Temp. Windchill Dew Point Humidity Pressure Visibility Wind Dir Wind Speed Gust Speed Precip Events Conditions
12:53 AM -11.0 °F -24.6 °F -17.0 °F 75% 30.45 in 10.0 mi West 5.8 mph - N/A   Clear
1:53 AM -9.9 °F -26.3 °F -17.0 °F 71% 30.45 in 10.0 mi WNW 8.1 mph - N/A   Partly Cloudy
2:53 AM -9.9 °F -21.5 °F -17.0 °F 71% 30.47 in 10.0 mi WNW 4.6 mph - N/A   Scattered Clouds
3:53 AM -9.0 °F -30.2 °F -16.1 °F 71% 30.48 in 10.0 mi NW 13.8 mph - N/A   Scattered Clouds
4:53 AM -9.0 °F -28.4 °F -17.0 °F 68% 30.48 in 10.0 mi NW 11.5 mph - N/A   Partly Cloudy
5:53 AM -11.9 °F -25.7 °F -18.9 °F 71% 30.51 in 10.0 mi NW 5.8 mph - N/A   Scattered Clouds
6:53 AM -15.0 °F -31.0 °F -20.0 °F 78% 30.52 in 10.0 mi WNW 6.9 mph - N/A   Clear
7:53 AM -14.1 °F -28.3 °F -20.0 °F 75% 30.55 in 10.0 mi WNW 5.8 mph - N/A   Scattered Clouds
8:53 AM -11.9 °F -27.3 °F -18.9 °F 71% 30.56 in 10.0 mi West 6.9 mph - N/A   Overcast
9:53 AM -11.0 °F -29.9 °F -18.9 °F 68% 30.58 in 10.0 mi WNW 10.4 mph - N/A   Overcast
10:53 AM -9.0 °F -35.8 °F -18.9 °F 62% 30.61 in 10.0 mi NW 24.2 mph 31.1 mph N/A   Scattered Clouds
11:53 AM -9.0 °F -36.8 °F -20.0 °F 59% 30.61 in 10.0 mi NNW 26.5 mph 32.2 mph N/A   Overcast
12:49 PM -9.4 °F -38.6 °F -18.4 °F 65% 30.49 in 2.5 mi NNW 29.9 mph 36.8 mph 0.00 in   Overcast
12:50 PM -9.9 °F -40.9 °F -18.9 °F 65% 30.62 in 2.5 mi NNW 34.5 mph 40.3 mph 0.00 in   Overcast
1:00 PM -11.2 °F -41.0 °F -23.8 °F 54% 30.49 in 7.0 mi NNW 29.9 mph 38.0 mph 0.00 in   Overcast
1:07 PM -11.2 °F -41.5 °F -23.8 °F 54% 30.49 in 10.0 mi NW 31.1 mph 36.8 mph 0.00 in   Overcast
1:53 PM -11.9 °F -42.0 °F -24.0 °F 55% 30.62 in 10.0 mi NW 29.9 mph - 0.00 in   Mostly Cloudy
2:19 PM -13.0 °F -43.5 °F -23.8 °F 59% 30.49 in 10.0 mi NW 29.9 mph 40.3 mph N/A   Mostly Cloudy
2:53 PM -13.0 °F -43.9 °F -25.1 °F 55% 30.63 in 10.0 mi NW 31.1 mph 40.3 mph N/A   Mostly Cloudy
3:12 PM -13.0 °F -44.3 °F -23.8 °F 59% 30.50 in 10.0 mi NW 32.2 mph 35.7 mph N/A   Mostly Cloudy
3:20 PM -13.0 °F -43.5 °F -25.6 °F 53% 30.51 in 10.0 mi NW 29.9 mph 36.8 mph N/A   Overcast
3:53 PM -15.0 °F -45.2 °F -26.0 °F 58% 30.64 in 10.0 mi NW 27.6 mph 38.0 mph 0.00 in   Mostly Cloudy
4:53 PM -16.1 °F -44.0 °F -26.0 °F 61% 30.65 in 10.0 mi NW 21.9 mph 29.9 mph N/A   Mostly Cloudy
5:07 PM -16.6 °F -44.1 °F -25.6 °F 64% 30.51 in 10.0 mi NW 20.7 mph 26.5 mph N/A   Partly Cloudy
5:23 PM -16.6 °F -43.5 °F -25.6 °F 64% 30.51 in 10.0 mi NW 19.6 mph 26.5 mph N/A   Mostly Cloudy
5:38 PM -16.6 °F -40.6 °F -25.6 °F 64% 30.51 in 10.0 mi NW 15.0 mph - N/A   Scattered Clouds
5:53 PM -16.1 °F -42.1 °F -26.0 °F 61% 30.65 in 10.0 mi WNW 18.4 mph - N/A   Mostly Cloudy
6:53 PM -17.0 °F -44.0 °F -26.0 °F 64% 30.66 in 10.0 mi NW 19.6 mph - N/A   Scattered Clouds
7:53 PM -17.0 °F -41.1 °F -26.0 °F 64% 30.65 in 10.0 mi NW 15.0 mph - N/A   Mostly Cloudy
8:06 PM -16.6 °F -45.3 °F -25.6 °F 64% 30.49 in 10.0 mi NW 23.0 mph 28.8 mph N/A   Scattered Clouds
8:53 PM -17.0 °F -42.6 °F -26.0 °F 64% 30.63 in 10.0 mi NW 17.3 mph 27.6 mph N/A   Clear
9:53 PM -18.0 °F -44.7 °F -26.0 °F 67% 30.61 in 10.0 mi NW 18.4 mph 29.9 mph N/A   Scattered Clouds
10:53 PM -18.0 °F -43.3 °F -27.0 °F 64% 30.60 in 10.0 mi NW 16.1 mph - N/A   Clear
11:53 PM -17.0 °F -42.6 °F -26.0 °F 64% 30.58 in 10.0 mi NW 17.3 mph 27.6 mph N/A   Overcast